This demonstration page uses our WeatherBlox Daily Observations layout. Learn more.

Left ArrowRight Arrow

39.95238, -75.16362

Hourly Observations for June 13, 2022

Temp ( °F °C ) Dew Point ( °F °C ) Humidity (%) Winds ( mph kmh ) Pressure ( in mb ) Visibility ( mi km ) Precip ( " mm )
12:54 am 00:54 Cloudy 73 22.8 67 19.4 81 81 Calm 29.92 1013 10 16 0.00 0.00
1:54 am 01:54 Mostly Cloudy 72 22.2 67 19.4 84 84 SSW 7 11 29.91 1013 10 16 0.00 0.00
2:54 am 02:54 Mostly Cloudy 72 22.2 67 19.4 84 84 SW 5 7 29.92 1013 10 16 0.00 0.00
3:54 am 03:54 Mostly Cloudy 72 22.2 67 19.4 84 84 Calm 29.91 1013 10 16 0.00 0.00
4:54 am 04:54 Cloudy 70 21.1 67 19.4 90 90 Calm 29.91 1013 10 16 0.00 0.00
5:54 am 05:54 Mostly Cloudy with Light Rain 71 21.7 69 20.6 94 94 Calm 29.92 1013 8 13 0.00 0.00
6:54 am 06:54 Mostly Cloudy 72 22.2 69 20.6 91 91 Calm 29.92 1013 8 13 0.00 0.00
7:54 am 07:54 Mostly Cloudy 74 23.3 69 20.6 85 85 WSW 3 6 29.93 1014 10 16 0.00 0.00
8:54 am 08:54 Mostly Cloudy with Light Rain 76 24.4 69 20.6 79 79 WNW 6 9 29.94 1014 10 16 0.00 0.00
9:54 am 09:54 Mostly Cloudy 77 25 70 21.1 79 79 Calm 29.95 1014 10 16 0.01 0.25
10:54 am 10:54 Mostly Cloudy 79 26.1 69 20.6 72 72 SSW 6 9 29.94 1014 10 16 0.00 0.00
11:54 am 11:54 Mostly Cloudy 82 27.8 69 20.6 65 65 WSW 5 7 29.93 1014 10 16 0.00 0.00
12:54 pm 12:54 Mostly Cloudy 85 29.4 69 20.6 59 59 SW 9 15 29.91 1013 10 16 0.00 0.00
1:54 pm 13:54 Partly Cloudy 87 30.6 68 20 53 53 WSW 10 17 29.91 1013 10 16 0.00 0.00
2:54 pm 14:54 Partly Cloudy 88 31.1 68 20 52 52 SW 10 17 29.90 1012 10 16 0.00 0.00
3:54 pm 15:54 Partly Cloudy 89 31.7 67 19.4 48 48 WSW 16 26 29.88 1012 10 16 0.00 0.00
4:54 pm 16:54 Partly Cloudy 89 31.7 67 19.4 48 48 WSW 13 20 29.87 1011 10 16 0.00 0.00
5:54 pm 17:54 Mostly Cloudy 90 32.2 65 18.3 44 44 W 12 19 29.87 1011 10 16 0.00 0.00
6:54 pm 18:54 Partly Cloudy 90 32.2 65 18.3 44 44 WNW 9 15 29.88 1012 10 16 0.00 0.00
7:54 pm 19:54 Partly Cloudy 88 31.1 66 18.9 48 48 WNW 7 11 29.88 1012 10 16 0.00 0.00
8:54 pm 20:54 Partly Cloudy 86 30 67 19.4 53 53 WSW 8 13 29.89 1012 10 16 0.00 0.00
9:54 pm 21:54 Partly Cloudy 84 28.9 69 20.6 61 61 SW 5 7 29.90 1013 10 16 0.00 0.00
10:54 pm 22:54 Mostly Cloudy 81 27.2 70 21.1 69 69 SSW 7 11 29.90 1013 10 16 0.00 0.00
11:54 pm 23:54 Mostly Cloudy 81 27.2 70 21.1 69 69 SW 7 11 29.91 1013 10 16 0.00 0.00

Powered by AerisWeather